When you browse on this site, cookies collect data to enhance your experience and personalize the content and advertising you see.
Visit our Privacy Policy to learn more. By continuing to use the site, you agree to this use of cookies and data.

Stündliche Wetter Cava de' Tirreni

Heute, 4 Juli, Samstag

Zeit Temperatur Niederschläge Wind Luftdruck Luftfeuchtigkeit
00:00 +23°C° 0 mm 1 m/S 728 mmHg 81%
01:00 +23°C° 0 mm 1 m/S 728 mmHg 85%
02:00 +23°C° 0.1 mm 1 m/S 728 mmHg 85%
03:00 +23°C° 0.1 mm 1 m/S 728 mmHg 85%
04:00 +23°C° 0.1 mm 1 m/S 727 mmHg 85%
05:00 +24°C° 0.1 mm 1 m/S 728 mmHg 82%
06:00 +25°C° 0.1 mm 1 m/S 728 mmHg 79%
07:00 +25°C° 0.1 mm 1 m/S 728 mmHg 75%
08:00 +27°C° 0.2 mm 1 m/S 728 mmHg 70%
09:00 +28°C° 0.2 mm 2 m/S 728 mmHg 64%
10:00 +29°C° 0.2 mm 2 m/S 729 mmHg 59%
11:00 +29°C° 0.4 mm 2 m/S 729 mmHg 55%
12:00 +30°C° 0.4 mm 3 m/S 729 mmHg 51%
13:00 +31°C° 0.4 mm 3 m/S 729 mmHg 48%
14:00 +29°C° 1.3 mm 4 m/S 729 mmHg 52%
15:00 +27°C° 1.3 mm 5 m/S 728 mmHg 57%
16:00 +26°C° 1.3 mm 6 m/S 728 mmHg 61%
17:00 +25°C° 0.3 mm 5 m/S 728 mmHg 62%
18:00 +23°C° 0.3 mm 5 m/S 728 mmHg 63%
19:00 +22°C° 0.3 mm 4 m/S 728 mmHg 64%
20:00 +22°C° 0 mm 3 m/S 728 mmHg 65%
21:00 +21°C° 0 mm 3 m/S 728 mmHg 66%
22:00 +21°C° 0 mm 2 m/S 728 mmHg 66%
23:00 +21°C° 0 mm 2 m/S 728 mmHg 67%

Morgen, 5 Juli, Sonntag

Zeit Temperatur Niederschläge Wind Luftdruck Luftfeuchtigkeit
00:00 +20°C° 0 mm 2 m/S 728 mmHg 67%
01:00 +20°C° 0 mm 2 m/S 728 mmHg 67%
02:00 +20°C° 0 mm 2 m/S 728 mmHg 68%
03:00 +20°C° 0 mm 2 m/S 728 mmHg 69%
04:00 +20°C° 0 mm 2 m/S 727 mmHg 70%
05:00 +21°C° 0 mm 2 m/S 727 mmHg 66%
06:00 +23°C° 0 mm 2 m/S 727 mmHg 62%
07:00 +24°C° 0 mm 2 m/S 728 mmHg 59%
08:00 +26°C° 0 mm 2 m/S 728 mmHg 53%
09:00 +28°C° 0 mm 2 m/S 728 mmHg 48%
10:00 +29°C° 0 mm 2 m/S 728 mmHg 43%
11:00 +30°C° 0 mm 3 m/S 728 mmHg 41%
12:00 +31°C° 0 mm 3 m/S 728 mmHg 40%
13:00 +33°C° 0 mm 4 m/S 728 mmHg 38%
14:00 +32°C° 0.2 mm 4 m/S 728 mmHg 42%
15:00 +30°C° 0.2 mm 4 m/S 727 mmHg 46%
16:00 +29°C° 0.2 mm 4 m/S 727 mmHg 50%
17:00 +28°C° 0.1 mm 3 m/S 727 mmHg 53%
18:00 +28°C° 0.1 mm 3 m/S 727 mmHg 56%
19:00 +27°C° 0.1 mm 2 m/S 727 mmHg 58%
20:00 +26°C° 0 mm 2 m/S 727 mmHg 59%
21:00 +25°C° 0 mm 2 m/S 727 mmHg 59%
22:00 +24°C° 0 mm 2 m/S 727 mmHg 59%
23:00 +24°C° 0 mm 2 m/S 727 mmHg 60%

übermorgen, 6 Juli, Montag

Zeit Temperatur Niederschläge Wind Luftdruck Luftfeuchtigkeit
00:00 +23°C° 0 mm 2 m/S 726 mmHg 61%
01:00 +23°C° 0 mm 2 m/S 726 mmHg 62%
02:00 +23°C° 0 mm 2 m/S 725 mmHg 62%
03:00 +21°C° 0 mm 2 m/S 725 mmHg 61%
04:00 +21°C° 0 mm 2 m/S 725 mmHg 61%
05:00 +23°C° 0 mm 2 m/S 725 mmHg 57%
06:00 +24°C° 0 mm 2 m/S 725 mmHg 53%
07:00 +25°C° 0 mm 2 m/S 725 mmHg 49%
08:00 +27°C° 0 mm 2 m/S 725 mmHg 45%
09:00 +29°C° 0 mm 1 m/S 725 mmHg 41%
10:00 +31°C° 0 mm 1 m/S 725 mmHg 37%
11:00 +31°C° 0 mm 2 m/S 725 mmHg 36%
12:00 +32°C° 0 mm 2 m/S 725 mmHg 35%
13:00 +34°C° 0 mm 3 m/S 724 mmHg 34%
14:00 +33°C° 0 mm 3 m/S 724 mmHg 35%
15:00 +33°C° 0 mm 3 m/S 724 mmHg 37%
16:00 +31°C° 0 mm 3 m/S 724 mmHg 38%
17:00 +30°C° 0 mm 3 m/S 723 mmHg 43%
18:00 +29°C° 0 mm 2 m/S 723 mmHg 48%
19:00 +27°C° 0 mm 2 m/S 723 mmHg 54%
20:00 +26°C° 0 mm 1 m/S 723 mmHg 56%
21:00 +25°C° 0 mm 1 m/S 723 mmHg 59%
22:00 +24°C° 0 mm 1 m/S 724 mmHg 62%
23:00 +24°C° 0 mm 1 m/S 723 mmHg 64%

7 Juli, Dienstag

Zeit Temperatur Niederschläge Wind Luftdruck Luftfeuchtigkeit
00:00 +24°C° 0 mm 1 m/S 723 mmHg 65%
01:00 +23°C° 0 mm 1 m/S 723 mmHg 67%
02:00 +23°C° 0 mm 1 m/S 723 mmHg 68%
03:00 +23°C° 0 mm 1 m/S 723 mmHg 69%
04:00 +23°C° 0 mm 1 m/S 723 mmHg 70%
05:00 +24°C° 0 mm 1 m/S 723 mmHg 66%
06:00 +25°C° 0 mm 1 m/S 723 mmHg 61%
07:00 +26°C° 0 mm 1 m/S 724 mmHg 57%
08:00 +28°C° 0 mm 1 m/S 724 mmHg 52%
09:00 +29°C° 0 mm 1 m/S 725 mmHg 47%
10:00 +31°C° 0 mm 1 m/S 725 mmHg 41%
11:00 +31°C° 0 mm 2 m/S 725 mmHg 41%
12:00 +33°C° 0 mm 3 m/S 726 mmHg 40%
13:00 +33°C° 0 mm 3 m/S 726 mmHg 40%
14:00 +31°C° 0 mm 3 m/S 726 mmHg 41%
15:00 +31°C° 0 mm 3 m/S 726 mmHg 43%
16:00 +30°C° 0 mm 3 m/S 726 mmHg 44%
17:00 +29°C° 0 mm 3 m/S 726 mmHg 47%
18:00 +28°C° 0 mm 3 m/S 727 mmHg 51%
19:00 +26°C° 0 mm 3 m/S 727 mmHg 54%
20:00 +25°C° 0 mm 3 m/S 727 mmHg 55%
21:00 +23°C° 0 mm 4 m/S 728 mmHg 57%
22:00 +22°C° 0 mm 4 m/S 728 mmHg 58%
23:00 +21°C° 0 mm 4 m/S 728 mmHg 58%

8 Juli, Mittwoch

Zeit Temperatur Niederschläge Wind Luftdruck Luftfeuchtigkeit
00:00 +21°C° 0 mm 4 m/S 728 mmHg 58%
01:00 +20°C° 0 mm 4 m/S 728 mmHg 58%
02:00 +20°C° 0 mm 4 m/S 728 mmHg 60%
03:00 +20°C° 0 mm 4 m/S 728 mmHg 63%
04:00 +19°C° 0 mm 4 m/S 728 mmHg 65%
05:00 +20°C° 0 mm 4 m/S 728 mmHg 63%
06:00 +21°C° 0 mm 4 m/S 728 mmHg 60%
07:00 +22°C° 0 mm 4 m/S 729 mmHg 58%
08:00 +25°C° 0 mm 3 m/S 729 mmHg 50%
09:00 +27°C° 0 mm 3 m/S 729 mmHg 43%
10:00 +29°C° 0 mm 2 m/S 730 mmHg 35%
11:00 +30°C° 0 mm 2 m/S 730 mmHg 32%
12:00 +31°C° 0 mm 2 m/S 730 mmHg 29%
13:00 +32°C° 0 mm 2 m/S 730 mmHg 26%
14:00 +33°C° 0 mm 3 m/S 730 mmHg 28%
15:00 +31°C° 0 mm 3 m/S 730 mmHg 30%
16:00 +31°C° 0 mm 3 m/S 730 mmHg 32%
17:00 +30°C° 0 mm 3 m/S 729 mmHg 35%
18:00 +28°C° 0 mm 2 m/S 729 mmHg 39%
19:00 +27°C° 0 mm 2 m/S 729 mmHg 42%
20:00 +26°C° 0 mm 2 m/S 730 mmHg 43%
21:00 +25°C° 0 mm 2 m/S 730 mmHg 43%
22:00 +24°C° 0 mm 2 m/S 730 mmHg 43%
23:00 +23°C° 0 mm 2 m/S 730 mmHg 41%

9 Juli, Donnerstag

Zeit Temperatur Niederschläge Wind Luftdruck Luftfeuchtigkeit
00:00 +23°C° 0 mm 2 m/S 730 mmHg 40%
01:00 +23°C° 0 mm 2 m/S 730 mmHg 38%
02:00 +21°C° 0 mm 2 m/S 730 mmHg 36%
03:00 +21°C° 0 mm 2 m/S 729 mmHg 35%
04:00 +21°C° 0 mm 2 m/S 729 mmHg 33%
05:00 +23°C° 0 mm 2 m/S 730 mmHg 32%
06:00 +24°C° 0 mm 2 m/S 730 mmHg 30%
07:00 +26°C° 0 mm 1 m/S 730 mmHg 29%
08:00 +27°C° 0 mm 1 m/S 730 mmHg 28%
09:00 +29°C° 0 mm 1 m/S 730 mmHg 28%
10:00 +31°C° 0 mm 1 m/S 730 mmHg 27%
11:00 +31°C° 0 mm 2 m/S 730 mmHg 30%
12:00 +32°C° 0 mm 2 m/S 730 mmHg 33%
13:00 +33°C° 0 mm 3 m/S 730 mmHg 36%
14:00 +33°C° 0 mm 3 m/S 730 mmHg 37%
15:00 +31°C° 0 mm 3 m/S 730 mmHg 39%
16:00 +31°C° 0 mm 3 m/S 730 mmHg 40%
17:00 +30°C° 0 mm 3 m/S 729 mmHg 45%
18:00 +28°C° 0 mm 2 m/S 729 mmHg 49%
19:00 +27°C° 0 mm 2 m/S 729 mmHg 54%
20:00 +26°C° 0 mm 2 m/S 729 mmHg 56%
21:00 +26°C° 0 mm 1 m/S 729 mmHg 57%
22:00 +25°C° 0 mm 1 m/S 729 mmHg 59%
23:00 +24°C° 0 mm 1 m/S 729 mmHg 60%
Mehr zeigen